{"data":{"norad_id":59609,"intl_designator":"2024-080J","name":"STARLINK-31667","alt_names":[],"object_type":"PAYLOAD","status":"ACTIVE","operator":null,"country":"US","launch_date":"2024-04-28","launch_site_code":"AFETR","launch_vehicle":null,"mission":null,"orbit_class":"UNKNOWN","rcs_meters":null,"size_class":null,"mass_kg":null,"dimensions":null,"purposes":["comms"],"wikipedia_slug":null,"has_3d_model":false,"image_url":null,"decayed_at":null,"tle_current":{"epoch":"2026-09-21T08:44:58.054848Z","epoch_age_seconds":93544,"freshness":"FRESH","line1":"1 59609U 24080J   26264.36456082  .00000724  00000+0  35838-4 0  9990","line2":"2 59609  43.0030   8.9370 0001425 268.6286  91.4402 15.27575832134506","mean_motion":15.27575832,"eccentricity":0.0001425,"inclination_deg":43.003,"raan_deg":8.937,"arg_perigee_deg":268.6286,"mean_anomaly_deg":91.4402,"bstar":3.5838e-5,"rev_number":13450,"period_min":94.267005921052,"perigee_km":482.0838557623,"apogee_km":484.03929735662,"semimajor_km":6861.1985765595,"source":"CELESTRAK","updated_at":"2026-09-22T09:00:49.011020Z"}}}